Theta_e
302 303 304 305 306 305 306 306 305 306 306 307 307 306 307 308 309 309 308 309 308 308 308 307 308 312 312 311 311 311 310 312 318 322 324 322 322 324 323 324 322 320 318 321 330 333 334 336 337 341 344 345 344 344 344 346 346 351 363 366 361 359 354 357 362 359 360 363 360 362 364 365 359 355 355 355 356 355 355 354 353 352 352 351 352 353 352 351
302 303 304 305 306 306 306 306 306 307 307 308 308 308 308 308 309 309 309 309 309 309 309 307 309 311 311 311 312 311 312 317 322 323 325 325 324 322 320 321 320 317 319 322 330 336 337 336 337 341 343 344 343 344 343 345 347 349 356 363 361 359 356 359 361 360 359 360 358 360 363 362 358 354 352 358 358 355 357 354 353 354 353 353 352 353 352 350
302 303 304 305 306 306 306 306 306 306 307 307 307 307 308 308 309 309 309 309 309 308 309 308 308 311 311 311 313 313 316 321 325 326 329 328 325 323 320 318 318 316 318 322 331 338 337 338 341 342 344 343 342 343 342 344 347 347 347 353 362 361 357 359 360 361 358 358 359 360 360 356 356 356 355 361 360 360 362 357 355 357 355 353 351 352 352 350
302 303 304 306 306 306 306 306 306 306 306 307 307 306 307 307 307 308 308 309 309 309 309 307 307 310 311 312 313 314 319 325 329 332 330 329 326 324 323 319 319 316 317 322 330 337 338 340 344 342 343 341 340 343 343 343 345 347 345 348 358 359 357 358 359 362 357 357 360 358 359 357 357 355 357 362 364 365 362 357 355 356 354 352 351 351 351 350
302 303 304 306 307 306 306 306 306 306 306 306 307 307 306 306 306 306 307 307 309 309 308 307 307 310 312 313 313 315 322 328 330 330 325 324 321 322 324 322 321 318 318 322 327 336 337 339 342 341 342 339 339 342 341 344 343 345 345 345 354 356 357 358 356 360 358 359 360 358 362 360 356 357 356 360 366 366 360 355 354 353 352 353 352 351 351 350
302 302 304 306 307 307 307 306 306 306 306 306 307 307 307 307 306 306 305 305 307 307 307 307 308 311 312 313 316 318 325 329 328 327 322 320 320 321 323 322 321 318 319 321 326 335 337 337 339 341 341 339 339 341 341 341 341 343 343 341 350 354 358 359 354 355 361 363 363 363 363 358 358 362 357 355 362 363 355 354 353 352 353 352 352 351 350 349
302 303 305 307 307 307 307 306 306 306 306 307 308 308 308 307 306 306 305 305 305 306 307 307 309 312 312 315 320 323 326 327 326 325 323 320 321 321 321 322 319 318 321 322 327 333 337 337 337 340 340 337 338 338 339 339 339 339 340 339 344 351 356 357 353 352 358 364 361 361 359 356 362 364 359 354 358 359 355 353 351 351 351 352 352 351 351 351
302 303 304 306 307 307 307 306 306 306 306 307 308 308 309 307 306 306 305 305 305 306 307 309 311 312 313 317 323 326 327 326 325 326 326 325 325 322 321 323 320 320 323 325 328 333 336 337 337 339 339 337 335 335 337 338 339 337 337 337 338 351 358 354 352 351 355 360 357 357 357 355 358 360 359 357 355 356 355 353 352 350 349 351 350 351 351 350
302 302 304 306 307 307 307 307 307 306 307 308 308 309 309 307 306 306 306 306 307 308 309 311 312 313 314 317 320 325 327 323 322 325 326 329 332 328 325 326 323 321 324 327 330 334 336 337 335 337 337 335 332 333 334 334 336 337 337 337 335 344 357 356 356 355 355 359 357 355 355 355 354 354 357 358 354 354 354 352 351 349 349 351 350 350 350 349
303 303 303 305 307 308 307 307 307 307 307 308 308 309 309 307 307 307 307 308 310 311 312 313 314 313 316 320 324 326 323 320 321 322 324 328 333 333 329 327 323 321 323 327 329 333 335 335 334 335 335 333 332 332 333 331 332 335 335 338 337 335 343 352 358 359 357 352 349 350 352 356 355 354 359 357 353 353 353 351 350 349 351 350 350 350 349 349
304 304 304 305 307 308 307 307 307 307 307 308 308 309 310 308 307 308 310 311 313 314 313 313 312 313 318 322 327 328 320 321 321 320 323 327 328 330 329 326 323 322 322 325 328 332 335 335 333 333 334 332 331 331 331 331 329 330 333 335 336 336 335 338 349 357 357 350 349 350 352 355 353 356 361 355 352 354 353 351 351 350 352 350 350 351 349 350
305 304 304 304 306 308 308 307 308 307 307 308 308 309 310 308 307 309 311 312 313 313 313 312 311 313 320 325 327 325 317 320 321 318 321 324 326 327 327 327 324 323 323 325 328 331 333 334 332 332 334 330 329 329 327 328 327 328 330 332 333 335 336 335 338 346 354 352 349 349 350 353 353 356 360 355 351 354 353 352 350 352 352 351 351 351 350 350
306 306 305 305 305 307 308 307 308 308 308 308 308 309 309 309 309 309 312 313 312 313 312 313 313 317 324 327 327 319 315 319 320 318 318 321 326 327 328 330 327 325 327 331 332 333 333 332 332 331 331 330 329 327 326 326 326 328 327 330 331 329 331 336 337 339 346 349 350 348 341 346 355 354 356 352 352 354 354 352 350 352 352 351 353 351 350 351
308 307 307 305 305 306 308 308 308 308 308 308 308 310 310 310 310 310 312 313 314 316 315 315 317 323 328 328 322 316 317 319 319 319 318 319 324 325 327 330 330 328 331 335 335 334 332 331 331 331 329 329 330 328 327 326 325 328 327 327 328 322 324 333 337 336 342 345 350 349 337 344 356 353 351 351 352 354 355 354 350 349 351 350 352 351 351 350
309 309 308 307 305 305 308 308 308 308 309 308 308 310 311 311 311 310 312 314 315 317 317 319 321 326 333 330 320 317 318 319 321 321 319 319 321 325 326 328 331 331 332 335 336 334 332 331 328 329 328 329 329 329 328 327 326 327 322 319 324 320 322 334 335 336 339 342 351 348 337 345 355 351 351 351 350 354 355 353 351 351 352 351 352 351 350 351
310 310 309 308 306 305 307 309 308 308 308 309 309 311 312 312 312 311 312 314 316 317 319 325 328 329 331 327 318 318 320 319 319 318 318 317 319 325 326 326 330 330 332 334 334 334 333 331 328 327 329 329 329 329 328 323 320 327 322 314 318 319 321 328 332 335 339 342 349 348 341 347 353 351 350 351 350 351 354 354 352 355 353 350 352 352 351 351
310 310 310 309 308 306 306 308 309 308 309 309 311 312 313 315 314 312 311 313 316 320 322 328 331 329 328 324 317 317 318 317 318 317 317 317 317 323 327 327 328 328 330 332 332 332 331 331 328 328 329 329 330 328 322 314 312 319 321 316 318 321 320 322 329 333 338 342 345 348 349 349 351 351 351 352 351 351 356 355 354 356 355 354 352 351 352 352
310 311 310 310 310 308 306 307 309 309 309 310 312 312 314 317 316 315 315 317 321 325 327 329 328 326 324 321 317 317 316 317 318 318 318 319 317 320 327 328 326 328 329 330 330 330 329 329 328 329 330 327 330 328 317 313 313 314 316 315 316 321 321 321 327 332 338 342 343 347 348 350 351 352 350 352 352 352 356 355 354 357 357 356 355 352 352 351
309 310 310 310 310 309 307 306 308 309 309 312 312 314 317 319 319 319 321 324 327 330 329 326 325 322 318 316 316 316 317 316 317 318 318 320 317 318 326 327 326 328 328 328 328 328 328 330 328 328 328 326 327 327 322 320 320 318 318 317 315 316 319 325 330 333 339 341 343 345 344 349 352 351 352 351 350 351 353 354 354 357 357 357 357 354 354 352
309 310 310 310 310 309 307 305 308 309 309 311 312 315 318 319 321 323 322 322 326 326 320 317 319 317 314 315 316 316 315 316 317 318 320 320 318 320 324 326 326 328 327 327 327 327 328 329 328 327 326 327 326 325 326 325 324 323 322 318 317 316 317 328 332 331 337 338 339 346 344 349 352 352 354 352 351 352 352 354 356 358 357 356 357 356 357 354
309 310 310 310 309 309 307 306 308 310 310 310 312 316 317 314 316 317 316 317 319 318 314 315 316 314 315 315 315 315 315 317 317 318 320 319 320 323 324 325 325 326 327 327 327 328 328 326 327 327 326 325 324 326 325 325 326 325 322 317 316 317 318 327 332 331 334 335 335 344 344 345 352 352 352 351 352 352 351 353 358 361 358 356 357 356 356 355
309 309 310 309 310 309 307 306 308 310 311 312 314 317 315 314 314 315 314 314 316 316 314 314 315 314 315 315 315 314 315 316 318 318 319 319 322 325 325 323 323 326 326 325 327 327 326 325 326 327 325 324 323 325 324 325 326 324 323 317 314 317 322 325 330 332 333 331 332 340 341 341 349 351 350 349 351 352 351 353 360 361 360 358 357 357 356 357
309 309 309 309 310 309 307 306 308 310 311 315 318 317 315 315 315 315 315 314 315 317 315 314 315 314 315 315 315 314 314 315 317 319 319 320 322 324 324 324 323 324 324 324 326 323 321 324 327 327 325 324 324 324 324 325 324 323 321 316 312 318 319 317 323 331 331 331 332 337 338 339 346 348 350 348 348 351 350 351 361 362 360 358 356 355 357 359
309 309 309 309 309 309 308 307 311 312 314 317 318 316 316 315 315 315 315 315 316 317 316 315 315 315 314 314 314 313 314 316 316 318 318 318 320 322 324 326 325 324 324 324 325 323 323 326 327 326 326 326 324 324 326 322 321 322 323 318 315 319 319 318 323 330 330 330 333 334 327 329 340 346 350 349 347 352 349 352 362 361 360 360 358 355 355 358
309 308 309 309 309 310 308 309 314 316 317 318 317 316 316 315 316 315 315 317 317 316 316 316 315 314 315 314 314 313 314 315 315 317 318 317 318 320 322 326 326 326 326 324 324 323 324 326 326 326 325 325 324 325 325 323 319 319 323 322 320 322 323 322 325 324 320 319 328 329 316 318 332 340 345 348 347 351 351 354 361 361 363 365 367 363 357 356
308 308 309 309 309 308 310 313 316 316 317 318 316 316 315 316 316 315 316 317 315 315 315 314 314 313 313 314 315 314 314 314 316 317 317 317 317 318 320 321 323 325 326 325 324 323 323 325 325 326 326 326 324 323 326 326 318 314 322 326 324 324 322 321 321 318 312 312 326 331 317 313 322 331 342 346 347 352 352 355 358 362 365 364 367 364 359 356
307 308 308 310 309 307 312 315 314 315 318 317 316 316 315 317 316 315 318 315 313 315 315 313 314 312 313 314 314 313 313 314 316 316 317 316 316 317 318 319 320 321 324 325 321 322 325 325 324 324 325 324 324 322 325 328 319 315 323 327 324 324 322 321 320 315 314 316 322 327 322 315 315 325 338 342 345 348 354 358 359 361 363 360 359 359 356 354
307 308 308 309 309 309 310 311 313 316 318 316 315 316 315 316 315 315 318 316 313 315 316 313 313 313 313 314 314 314 314 315 316 316 317 318 316 317 317 318 318 319 321 323 318 322 326 325 324 325 324 324 322 322 326 326 321 321 326 326 324 325 323 323 319 314 316 315 312 317 322 317 313 324 338 339 344 345 350 360 360 360 360 357 356 356 355 352
307 308 308 308 310 314 313 312 315 318 317 316 316 315 316 316 314 317 318 316 316 314 315 313 313 313 314 314 314 315 314 315 315 315 317 318 316 316 316 316 317 318 319 320 319 323 326 326 325 325 323 323 323 324 324 324 324 324 325 326 325 324 323 323 320 314 314 311 308 312 317 316 313 319 329 331 338 344 349 357 359 357 357 358 356 354 353 351
308 308 309 308 311 317 317 316 317 318 316 316 316 316 316 315 316 319 319 317 316 314 314 314 314 314 314 314 315 315 315 315 315 315 315 316 316 316 316 316 317 318 319 320 320 321 323 324 326 325 324 324 323 325 324 323 324 324 325 325 322 322 323 322 320 315 311 309 308 311 315 317 315 316 324 328 333 345 351 353 358 358 356 358 355 352 353 353
309 309 309 308 311 313 314 316 318 317 317 316 316 316 317 316 317 319 319 317 314 314 315 315 315 315 315 314 315 315 315 315 315 315 315 315 316 316 316 316 315 316 314 315 317 320 321 321 323 325 325 324 325 324 324 324 324 324 325 322 316 316 317 316 315 314 312 309 310 312 315 315 313 317 327 334 334 339 348 353 359 358 356 356 352 350 354 355
310 310 310 310 310 310 312 315 317 316 316 316 316 317 317 319 318 316 317 315 313 314 315 315 315 315 315 314 314 315 315 315 314 314 315 315 316 317 317 315 316 314 311 310 312 314 317 319 321 323 325 326 324 322 322 323 324 325 323 317 312 311 312 313 312 312 312 311 312 314 313 311 312 319 328 333 334 336 339 349 356 356 355 355 351 352 353 354
311 311 312 311 310 311 313 316 316 316 316 316 316 317 318 321 319 316 316 314 312 314 315 315 314 315 314 313 315 315 314 314 314 314 314 315 317 318 318 317 317 316 314 313 312 310 312 316 319 320 322 325 325 320 317 319 322 322 318 313 310 311 312 313 313 313 313 312 313 315 314 309 309 318 326 328 330 335 334 342 353 353 354 353 352 352 354 355
312 313 314 311 311 314 316 317 317 316 315 315 316 317 319 321 320 316 315 315 314 315 315 314 314 314 314 313 314 314 314 314 314 314 314 314 315 316 317 318 318 317 317 315 312 310 309 311 316 317 317 321 326 323 320 322 322 322 322 318 312 311 312 313 312 313 313 311 312 314 313 309 308 316 326 327 327 331 334 338 349 352 352 353 352 351 352 352
313 316 318 315 315 317 318 318 317 315 315 316 316 319 320 319 317 315 315 315 314 316 315 314 314 313 314 314 314 314 313 313 314 314 313 313 313 314 317 318 318 317 316 313 312 314 310 310 317 320 319 321 323 323 326 325 321 322 324 319 313 314 315 313 312 312 312 311 312 311 311 314 317 323 326 327 326 330 334 335 343 350 351 351 352 352 350 351
315 319 321 320 319 318 317 317 316 315 315 316 318 320 320 317 316 315 315 315 314 314 314 314 314 313 311 313 315 315 313 313 314 313 313 313 314 316 319 318 317 316 316 313 314 315 311 312 319 322 321 321 321 323 325 322 320 322 320 315 317 323 319 313 312 313 312 312 314 312 311 315 319 322 326 327 328 329 333 335 336 349 354 352 353 354 350 350
317 320 321 321 319 316 316 314 315 316 315 316 319 322 320 316 315 315 314 314 314 314 314 312 313 313 310 311 313 314 313 312 313 311 311 313 313 315 318 317 316 316 316 314 314 315 313 312 319 321 321 322 322 323 325 323 322 320 316 317 323 325 322 316 313 314 314 313 314 312 311 313 311 316 324 327 327 328 332 335 333 341 352 353 351 351 351 349
317 321 322 321 317 316 315 314 315 316 316 319 321 322 319 316 315 314 313 314 314 315 314 311 312 314 312 311 312 314 313 311 312 312 311 311 312 315 318 317 316 315 314 313 313 314 314 311 316 320 320 321 322 322 321 322 325 321 319 323 322 316 315 316 314 314 315 314 314 312 312 312 310 314 322 324 327 327 330 334 335 336 349 353 348 349 352 351
318 322 322 319 316 315 315 315 316 316 318 320 320 319 317 315 314 314 313 314 313 313 313 312 313 313 313 312 312 314 313 311 312 312 311 312 313 314 316 315 315 315 314 313 313 313 315 313 314 318 320 320 321 320 316 318 324 323 322 325 322 317 315 315 315 315 314 315 314 313 312 312 315 322 326 327 328 329 329 333 336 334 342 350 350 351 354 352
322 323 320 318 317 316 315 315 316 317 319 319 319 318 316 315 314 313 312 313 312 313 313 313 314 313 313 313 313 312 313 312 312 312 311 312 312 313 314 314 314 315 313 312 312 312 314 314 312 316 319 317 315 318 318 318 319 320 318 318 318 319 318 317 317 314 313 315 315 314 313 312 320 330 331 331 330 329 329 333 336 335 335 339 346 350 351 349
322 322 319 318 317 315 315 317 317 318 319 318 317 316 315 314 313 313 312 312 312 313 312 312 313 312 312 313 313 313 313 313 312 312 312 312 312 312 313 313 312 313 312 311 312 312 312 313 312 313 313 312 314 318 319 320 321 320 319 318 317 318 316 315 316 315 313 314 313 315 313 313 324 333 330 331 331 329 330 331 331 334 334 336 341 346 349 350
322 321 319 317 316 315 317 317 317 318 317 316 315 314 314 314 313 312 312 312 312 312 311 312 312 312 312 312 312 312 312 312 312 312 312 312 312 313 313 312 311 311 311 311 311 313 315 315 314 313 313 313 316 319 319 319 321 322 321 322 322 320 315 312 314 314 313 312 313 314 312 316 328 335 332 331 333 330 331 331 331 334 334 336 339 340 346 350
322 320 317 316 316 316 317 318 317 316 316 315 315 313 312 312 313 313 313 312 312 312 312 312 312 312 312 312 312 312 312 312 312 311 312 312 313 313 312 312 311 311 310 312 312 314 315 315 314 314 314 315 317 318 319 319 320 319 319 321 323 322 319 317 317 318 315 312 312 313 312 317 327 334 333 331 331 331 331 331 331 333 333 334 337 338 344 349
320 319 318 316 316 317 317 317 317 316 315 314 314 313 312 312 313 313 313 312 312 313 312 312 312 312 312 312 312 312 311 312 312 312 312 312 312 312 312 311 311 311 311 313 314 313 313 315 315 314 314 315 315 314 316 318 318 318 319 321 322 321 321 321 320 321 319 315 314 315 312 315 326 334 334 331 330 331 330 330 331 332 331 332 335 337 343 350
320 321 318 316 315 317 316 315 316 316 315 314 314 313 313 313 312 311 311 311 312 312 311 311 312 311 311 311 311 311 311 311 312 312 312 311 311 312 311 311 311 310 311 315 314 312 312 315 316 317 316 315 313 313 313 315 317 320 321 321 322 321 321 320 318 317 317 318 318 317 314 317 328 334 331 331 332 331 330 330 329 331 331 332 334 336 340 351
321 320 318 317 316 315 316 314 315 315 314 315 315 314 313 314 312 310 310 311 312 311 311 311 311 311 311 311 311 312 311 311 311 312 312 312 312 312 311 311 311 311 312 314 313 311 311 312 314 316 318 316 316 317 317 318 318 318 320 321 322 322 323 322 318 316 318 318 316 320 321 320 327 334 334 333 331 328 332 331 330 332 331 331 339 343 340 347
319 318 317 318 318 316 316 314 314 314 314 315 316 314 312 313 313 312 310 310 311 311 310 311 311 311 312 312 312 312 312 312 312 312 312 311 312 311 311 311 311 312 314 314 311 310 311 311 311 313 315 315 316 316 316 316 316 316 317 318 320 322 322 321 319 318 322 320 317 324 330 321 323 334 340 340 337 332 331 331 328 332 332 330 341 348 338 340
317 316 316 317 317 316 315 315 314 314 313 314 314 314 313 312 312 312 311 310 311 310 310 312 312 311 311 312 313 313 313 313 313 313 313 312 312 313 312 311 311 312 313 312 311 310 310 310 310 311 311 311 312 313 312 313 314 314 315 316 317 319 318 318 319 319 322 321 319 326 331 325 327 334 336 339 341 337 335 337 337 336 334 332 339 343 336 335
316 317 314 315 316 315 314 313 314 314 314 313 313 313 313 313 312 311 311 311 311 311 311 312 313 313 312 312 313 314 314 314 314 313 313 313 313 313 313 312 312 312 312 311 311 311 310 311 311 310 310 311 311 312 312 311 312 312 314 315 316 316 317 318 319 321 322 322 323 326 327 327 330 333 336 337 339 338 339 344 344 344 346 346 347 345 343 344
316 316 316 316 315 314 314 314 314 314 313 313 314 313 312 313 312 312 311 311 312 313 312 312 312 313 313 312 313 314 313 314 314 313 313 313 313 313 313 313 313 312 311 311 312 312 311 311 311 310 311 311 311 311 311 311 311 311 312 314 314 315 316 316 317 320 321 321 325 326 325 326 329 334 338 338 336 340 344 343 344 346 349 351 349 347 347 350
315 315 316 316 316 315 315 314 314 315 314 313 314 314 313 313 312 312 312 311 311 312 312 312 312 312 313 313 313 313 313 313 313 312 312 312 312 313 313 313 312 312 312 312 312 313 312 312 312 312 311 311 310 310 310 310 310 310 310 312 313 313 315 315 317 320 320 321 323 323 322 326 329 332 335 336 335 340 343 343 344 344 344 348 348 346 348 350
315 315 315 316 315 315 315 314 313 315 314 312 313 313 313 313 312 312 313 313 311 311 312 311 311 311 312 313 314 313 312 312 311 311 311 310 310 310 311 311 311 311 312 312 312 313 313 313 313 312 311 311 310 310 310 310 310 310 310 311 312 313 314 314 316 319 321 322 322 322 323 327 330 335 340 340 340 341 343 344 344 344 346 348 348 347 348 347
Wind_Speed
33 33 33 32 29 25 23 22 21 20 19 18 17 16 15 14 13 14 15 16 16 17 18 18 17 14 11 11 11 11 9 9 10 11 15 11 8 9 8 9 11 13 12 13 14 13 14 16 16 17 15 10 8 7 8 9 7 4 3 2 2 3 4 3 3 3 1 3 5 7 5 9 7 8 8 8 9 12 11 10 8 8 11 14 22 31 33 31
33 33 33 32 30 26 24 23 21 20 19 18 18 17 16 15 14 14 15 16 16 16 17 17 15 11 10 11 11 9 8 10 14 16 20 17 11 11 11 13 13 11 14 16 16 16 15 14 15 16 11 8 7 8 9 8 7 6 4 3 2 3 2 3 4 6 5 3 5 7 9 10 6 6 8 7 9 13 10 11 12 9 12 18 26 30 31 31
32 33 33 33 30 27 24 23 21 20 20 20 19 18 18 16 15 15 15 16 16 16 16 16 14 10 9 11 11 7 7 11 14 13 13 14 16 16 14 14 15 13 17 18 17 17 15 14 16 14 10 8 8 9 10 7 7 7 6 5 4 6 2 1 5 6 8 7 6 7 7 5 5 3 6 7 10 10 3 7 15 12 15 20 24 26 30 30
32 33 34 33 30 27 25 23 21 20 20 20 21 20 19 18 17 17 17 16 16 16 15 15 14 10 9 10 10 6 7 11 6 2 4 7 13 16 15 13 13 14 20 21 18 16 15 14 14 13 10 8 8 10 10 7 6 6 7 6 3 7 4 4 3 5 10 9 7 6 4 3 3 3 4 5 5 5 3 3 11 14 20 22 23 24 26 27
32 33 34 33 31 27 25 23 22 21 21 21 21 21 22 21 20 19 19 17 16 16 15 15 13 10 9 10 9 6 7 6 4 8 4 3 7 10 13 12 13 15 20 22 19 17 16 14 12 12 9 8 9 9 9 10 8 6 8 7 5 9 5 7 6 4 11 8 7 5 5 5 3 1 3 9 6 4 3 2 8 15 20 22 23 23 23 23
32 33 33 33 31 27 25 23 22 22 21 21 22 23 24 24 22 21 19 17 16 15 15 14 11 8 8 10 8 5 8 3 6 5 3 4 4 6 12 11 14 17 18 19 19 17 16 14 12 11 9 9 11 9 10 11 10 8 8 10 7 12 7 8 8 9 11 3 5 2 4 5 3 3 2 9 5 5 3 3 7 17 19 21 22 21 22 22
32 33 33 33 31 27 24 23 22 22 21 22 24 26 26 25 22 21 18 16 14 13 14 12 8 7 8 10 7 6 10 4 5 5 6 6 4 5 11 11 15 18 16 18 17 16 14 14 13 11 9 9 11 11 11 10 12 10 9 12 4 8 5 5 7 11 12 10 2 6 5 4 7 3 2 8 5 8 6 6 6 16 18 21 21 21 21 22
32 33 33 33 31 28 24 22 22 22 21 23 25 27 28 25 21 19 16 13 12 11 11 9 6 6 7 8 6 7 8 2 5 5 8 6 3 4 9 11 16 18 16 18 17 15 14 14 14 11 10 10 10 11 12 11 11 11 11 12 7 7 9 6 7 8 8 12 12 12 9 5 9 7 5 6 5 10 10 7 8 14 17 19 20 21 21 20
31 33 33 33 31 28 25 23 22 21 21 23 26 28 28 23 19 17 13 11 9 8 7 6 6 6 7 6 8 7 1 3 4 3 5 4 1 4 9 11 16 17 16 18 17 16 13 12 13 12 11 10 11 11 12 11 8 11 11 11 12 8 14 15 9 8 7 8 11 12 9 6 6 6 6 4 1 5 8 10 14 15 17 17 18 20 20 20
31 32 33 33 31 28 25 23 22 21 21 24 26 29 28 21 17 15 12 9 7 6 5 6 7 7 8 7 8 5 4 5 3 2 3 0 2 6 11 12 16 18 17 17 17 17 13 11 12 11 11 11 11 11 11 10 9 10 9 8 12 11 9 14 14 9 10 6 5 6 8 10 9 6 5 5 3 4 5 10 16 15 16 17 17 18 18 19
31 32 33 33 31 28 25 24 22 21 22 24 26 29 28 20 17 14 10 9 7 8 8 9 10 8 8 8 8 4 6 5 4 2 1 1 4 8 12 12 16 19 17 16 16 17 15 14 12 8 8 8 10 11 11 11 12 12 10 10 11 11 11 11 10 12 10 7 7 5 6 10 12 8 5 8 8 8 8 11 14 13 14 16 16 16 15 16
30 31 32 33 32 29 25 23 22 21 22 24 25 27 26 19 16 13 9 9 10 11 11 11 9 7 8 9 8 4 7 5 4 4 3 3 5 8 10 11 15 18 17 14 14 16 16 16 14 11 8 7 8 8 6 8 13 12 11 12 12 11 11 13 12 11 11 10 10 8 5 6 9 9 11 13 12 11 10 11 14 13 12 13 14 14 13 15
30 31 32 32 32 30 26 23 21 21 23 24 25 26 23 18 16 11 9 12 12 11 10 8 5 6 9 6 2 3 7 4 2 4 5 5 6 8 8 9 13 17 17 15 13 14 15 16 15 14 11 9 8 7 5 6 9 10 11 10 10 11 10 13 14 13 13 10 12 10 5 5 9 13 16 15 14 13 10 10 13 12 12 12 13 13 13 16
30 31 31 32 32 31 27 23 21 21 23 24 24 24 21 19 15 10 9 12 11 7 5 5 4 6 8 4 2 4 4 3 3 5 5 5 6 7 9 9 11 15 16 15 13 11 13 15 15 12 11 11 10 11 11 7 7 8 10 9 8 8 8 11 14 15 14 10 14 12 6 5 11 14 15 14 15 15 11 12 14 13 13 13 13 14 14 15
30 31 31 32 32 31 28 24 22 22 24 25 24 22 20 19 15 10 9 11 10 7 6 7 7 7 8 5 3 1 2 4 4 4 3 5 8 8 9 10 11 13 14 14 13 10 10 13 13 10 9 11 11 12 10 7 7 8 8 8 8 8 8 11 13 15 15 11 14 13 6 5 11 14 14 13 14 15 13 12 13 13 13 13 12 14 14 14
31 31 31 31 32 31 29 25 23 22 25 26 23 21 20 19 14 11 10 10 11 8 5 7 10 11 7 2 4 4 3 1 2 3 5 7 10 8 8 10 10 11 13 12 11 10 9 10 10 9 10 10 9 9 8 7 7 8 8 8 9 10 9 10 12 15 17 13 13 14 8 3 8 13 14 14 14 14 12 11 11 11 12 13 12 13 13 14
31 30 31 31 31 31 29 26 23 23 25 25 23 22 20 18 14 13 12 12 12 9 8 10 10 10 7 5 3 5 2 5 6 4 5 6 10 7 5 8 9 10 12 11 10 9 9 8 7 8 9 8 8 8 7 8 8 7 9 9 10 12 10 8 11 13 17 14 13 15 11 3 5 12 14 14 15 14 12 12 11 7 8 9 11 13 13 14
32 31 31 30 30 31 29 26 23 21 24 24 22 23 23 19 15 14 14 12 8 8 12 13 11 6 5 6 5 1 4 5 4 2 3 5 8 8 6 8 8 10 11 9 10 10 8 7 7 7 8 8 9 9 9 10 9 9 9 8 10 12 12 10 10 9 16 15 12 13 12 8 8 12 14 14 16 16 14 13 11 8 7 6 8 12 13 14
33 31 31 31 30 31 29 26 21 20 23 23 22 25 23 16 12 11 12 9 6 6 5 5 7 5 2 1 2 3 4 4 4 5 4 4 6 8 9 8 8 10 9 7 9 10 7 6 8 8 8 10 12 12 12 12 12 13 11 9 10 10 11 12 11 10 13 14 12 12 12 11 11 11 14 15 15 15 14 14 11 9 9 5 4 7 12 15
33 32 31 31 30 30 29 25 19 18 21 23 26 24 14 8 4 3 6 8 9 8 7 3 4 7 4 1 3 6 6 7 7 6 3 3 6 9 9 8 8 9 9 8 9 10 8 8 9 10 11 13 15 16 16 15 14 16 14 11 12 10 10 12 13 13 12 12 12 14 13 11 11 12 15 15 14 15 14 15 12 10 10 8 5 4 6 12
33 32 31 31 31 29 28 24 17 16 18 22 25 16 6 7 6 4 6 9 10 8 8 6 5 8 5 4 6 8 7 7 5 1 2 3 7 7 7 9 9 8 9 11 9 9 10 9 11 13 15 15 16 16 17 17 16 16 14 11 11 9 10 12 13 13 12 11 11 13 13 11 11 14 17 15 15 17 16 16 14 13 11 8 8 7 6 8
33 32 31 31 30 28 27 23 16 15 17 18 17 7 7 10 7 7 8 9 11 8 8 6 7 7 2 3 4 4 7 6 5 4 2 3 8 7 7 8 9 8 10 12 9 8 10 11 14 15 15 15 16 16 16 17 16 14 11 10 9 8 10 11 13 14 12 9 9 12 11 11 13 14 15 15 15 14 16 17 15 13 11 9 10 9 7 9
32 31 31 30 30 28 26 21 16 14 15 16 10 5 9 9 8 10 7 7 10 9 10 8 8 7 2 2 2 3 8 7 3 6 5 4 7 6 6 8 9 9 10 12 11 9 8 9 14 15 14 15 16 17 16 14 13 12 10 9 9 10 11 8 10 14 12 9 10 12 11 10 12 13 12 13 13 13 16 17 14 12 12 11 11 10 9 9
31 31 30 30 30 26 23 21 17 12 12 14 6 7 9 10 10 11 7 7 9 8 8 6 6 4 1 2 2 6 8 6 3 4 4 6 6 4 7 9 9 10 10 13 14 14 11 9 12 16 16 16 16 16 16 12 9 12 13 12 10 10 14 11 10 12 11 11 13 11 9 9 11 15 14 13 14 14 14 15 13 11 10 9 9 10 12 12
31 31 29 30 28 25 23 19 14 9 9 10 3 7 10 11 9 10 7 6 6 5 6 5 4 2 1 3 5 6 6 5 6 0 1 6 6 4 6 6 7 9 11 15 15 13 13 12 11 14 16 17 17 14 14 12 8 10 13 14 15 13 14 15 15 13 8 9 12 12 10 7 9 15 16 14 15 15 12 13 13 11 9 8 6 7 10 15
31 30 29 27 26 25 20 10 9 14 13 6 7 9 10 10 9 8 5 5 4 5 7 6 5 3 2 4 5 5 6 4 3 1 1 5 6 6 5 4 5 8 11 12 10 8 10 14 13 13 14 16 17 14 13 13 9 8 9 12 16 17 16 16 16 12 8 7 9 13 11 6 6 11 14 15 17 18 16 15 16 13 9 9 7 5 9 15
30 29 28 25 21 21 15 8 13 17 10 7 10 10 10 10 9 6 4 5 4 5 7 6 4 2 2 3 4 6 4 1 2 4 3 1 3 4 6 6 6 7 9 7 7 6 9 14 15 14 14 13 13 12 13 14 10 8 10 11 12 14 16 16 16 12 8 10 11 13 12 8 7 9 12 15 19 20 19 20 17 12 11 13 13 12 14 16
30 28 27 23 16 12 12 12 15 14 8 12 12 10 10 9 6 4 5 4 2 4 4 4 4 2 2 1 6 8 4 2 4 5 3 1 3 5 6 8 9 9 9 7 7 7 9 13 14 15 14 10 9 11 13 14 12 9 11 14 10 9 11 12 12 11 10 10 10 12 12 9 7 8 11 14 18 21 21 22 19 14 14 15 15 17 19 18
30 28 26 23 14 7 11 12 12 12 11 13 12 11 11 9 5 4 5 3 3 3 0 2 3 4 5 5 7 6 5 5 5 3 3 5 6 6 7 7 10 12 11 10 10 9 8 9 11 14 13 10 11 12 12 14 12 9 12 15 12 9 9 8 9 9 10 11 9 12 12 8 7 7 10 12 13 17 19 20 19 18 17 16 17 19 20 18
30 27 24 22 14 8 10 12 12 11 11 12 12 13 12 8 4 5 5 2 4 4 1 3 3 3 6 8 7 6 4 5 3 2 4 6 6 7 7 7 8 10 10 11 11 12 13 9 8 10 11 11 12 12 13 15 12 8 10 12 12 10 7 5 6 6 8 10 11 15 15 10 9 8 8 9 11 14 17 18 19 21 22 21 20 19 18 17
29 25 23 19 13 10 11 8 5 9 11 13 14 13 10 5 4 6 3 1 3 3 4 4 2 3 5 7 4 5 4 4 2 4 5 5 7 8 6 7 6 7 8 8 9 12 15 13 9 8 9 12 14 12 12 12 10 7 8 9 8 8 6 5 6 7 7 9 10 14 17 15 10 8 8 9 12 14 14 19 23 24 24 24 22 20 19 17
27 23 21 15 10 9 11 9 11 14 12 14 13 9 6 4 5 6 3 3 2 1 2 3 2 1 1 5 5 3 1 3 2 4 7 5 6 6 7 6 3 4 6 6 8 10 12 13 12 10 9 10 13 11 9 10 9 9 10 8 8 7 6 7 7 7 8 9 9 13 16 14 11 9 13 16 12 11 11 15 25 28 25 23 21 20 18 17
25 21 16 8 8 10 12 11 13 13 11 12 10 5 5 5 5 6 5 2 2 3 2 3 2 1 2 4 3 2 0 3 2 2 5 5 7 4 5 4 4 5 5 5 7 7 8 12 15 14 9 9 13 10 7 8 10 11 11 9 8 7 7 7 7 7 9 9 11 14 13 11 10 10 15 22 19 10 11 14 23 29 26 24 22 21 19 19
22 16 11 4 9 13 12 11 10 10 11 10 6 5 6 6 3 5 4 5 6 3 1 2 2 4 5 4 2 3 3 3 1 3 4 3 7 5 4 2 4 7 8 6 7 7 7 8 12 14 11 11 14 13 9 8 9 11 11 9 9 8 7 7 6 7 8 9 12 15 12 9 8 7 12 19 22 15 12 13 20 27 25 23 23 22 21 21
19 12 8 6 10 14 13 12 9 8 8 6 5 5 5 4 2 5 5 6 5 3 3 2 5 6 6 4 2 2 3 1 2 3 5 5 6 3 1 4 7 6 7 5 5 7 10 9 5 11 13 13 15 14 12 11 8 9 10 10 9 9 8 8 8 9 9 8 9 10 9 7 7 7 9 14 18 17 15 13 14 24 26 24 22 22 21 19
19 12 8 7 8 8 7 8 7 6 6 5 5 5 3 2 6 6 6 6 5 6 7 5 6 6 5 5 5 5 3 2 1 2 4 7 7 1 7 8 8 7 6 5 5 6 7 9 9 7 10 13 15 15 14 13 9 7 9 10 10 10 10 8 9 12 11 9 7 6 8 8 8 8 11 13 15 17 16 15 11 16 27 26 20 20 20 18
17 14 11 7 5 7 5 5 5 5 5 5 4 5 3 3 7 7 8 8 5 4 8 7 1 3 5 2 5 7 4 3 3 2 4 5 4 2 7 7 6 8 9 7 5 5 8 9 12 12 9 9 10 14 17 15 12 9 8 9 9 11 11 8 7 8 10 10 7 7 10 9 7 7 10 14 16 17 17 16 16 13 23 26 21 19 21 20
15 13 11 6 5 7 3 2 4 5 5 5 6 7 5 3 7 7 8 8 6 5 7 6 1 1 5 4 5 7 2 3 2 0 5 4 2 6 6 5 7 8 9 9 5 5 10 9 10 12 10 6 6 11 12 13 17 15 12 8 7 8 9 8 7 7 9 9 6 9 12 9 8 6 9 14 16 17 18 18 19 16 17 21 19 20 21 20
13 9 5 1 5 6 2 2 5 6 5 5 4 3 4 5 9 9 9 8 6 6 6 7 5 0 2 5 3 4 4 4 4 3 3 1 2 5 7 5 5 7 10 10 7 7 8 7 8 12 12 8 5 8 8 9 15 16 13 14 10 7 7 8 8 7 8 8 7 9 10 8 8 6 8 13 16 16 15 15 17 17 14 16 17 18 19 18
9 6 1 4 7 4 0 4 6 5 5 5 3 3 5 6 8 9 9 8 6 4 5 7 9 4 1 7 8 3 2 3 4 5 2 3 2 3 7 6 6 8 10 9 8 7 7 6 7 10 12 10 6 6 8 10 10 10 10 12 11 8 7 7 8 9 9 7 7 7 8 7 6 6 9 9 12 14 14 12 13 15 15 16 16 18 18 17
7 4 3 5 5 2 4 7 5 5 4 2 2 5 8 6 7 8 8 7 6 4 5 6 7 7 6 7 8 3 1 5 6 5 4 3 2 1 6 10 8 7 8 7 7 5 5 6 7 9 9 7 8 8 10 13 12 10 10 10 11 10 9 8 8 9 10 8 8 7 7 7 5 5 10 8 7 11 15 14 12 14 17 17 16 19 19 18
6 2 4 4 2 2 6 6 2 3 2 3 3 7 8 5 6 7 4 3 4 3 2 4 3 4 4 5 9 7 4 6 8 5 4 5 3 6 6 9 9 7 6 5 7 6 6 5 7 9 9 10 13 13 14 15 16 14 12 11 10 8 8 9 8 8 10 10 10 9 8 9 7 5 8 10 11 13 16 17 14 13 15 16 16 19 20 18
2 2 5 5 2 5 6 3 1 1 4 3 2 7 7 4 6 8 3 3 1 0 2 4 3 3 3 5 9 8 4 6 9 6 7 8 3 9 7 8 8 7 7 4 5 7 7 5 7 9 9 11 17 18 16 16 15 12 12 14 10 8 10 10 8 8 10 11 11 9 8 9 8 11 10 2 6 9 11 15 16 15 14 15 16 16 19 20
5 5 4 4 3 5 4 3 2 2 5 4 2 6 5 3 8 10 9 7 4 4 5 5 6 6 5 5 7 7 6 6 7 7 8 8 1 4 6 8 8 6 5 6 6 7 5 4 5 7 8 7 10 12 11 12 11 8 10 13 12 13 16 14 10 8 8 12 12 9 7 9 8 10 9 3 4 10 10 9 11 13 13 14 15 13 13 16
6 5 1 2 3 2 3 6 5 3 4 4 4 4 3 4 6 7 10 9 6 7 7 4 4 5 6 8 7 6 7 6 6 7 7 8 6 3 8 10 9 6 4 9 11 7 5 6 5 6 7 7 7 5 4 6 6 6 10 13 12 15 17 13 10 8 7 11 14 9 7 7 8 8 7 3 6 10 7 3 8 11 12 13 13 12 11 12
4 2 2 3 3 4 5 6 7 5 3 2 3 6 5 3 6 6 7 9 6 6 7 5 4 4 4 6 7 5 6 7 7 7 6 8 8 7 9 11 10 10 8 9 10 7 5 7 8 9 9 10 9 8 10 11 10 9 13 16 15 14 14 11 8 7 7 10 12 10 8 9 10 8 4 7 11 7 4 7 4 6 8 11 8 6 8 9
3 3 4 3 3 3 4 4 7 6 4 2 2 3 4 4 4 5 3 3 4 5 5 4 5 5 4 5 5 5 6 7 7 8 8 9 8 10 13 12 11 12 11 8 7 6 5 7 11 13 14 15 17 17 16 14 13 14 16 18 17 15 15 13 9 9 12 9 9 10 9 10 14 9 5 9 9 6 4 8 9 6 5 8 3 3 7 11
4 3 4 4 3 4 5 4 5 5 5 5 2 1 2 3 4 3 2 1 4 5 3 2 2 4 4 5 4 5 5 5 6 6 6 6 7 8 10 10 10 12 11 9 7 6 6 8 11 14 16 18 19 19 19 17 15 16 17 18 18 17 16 15 12 13 14 10 10 13 12 10 14 11 4 9 11 6 4 6 9 7 1 2 5 6 2 6
5 2 5 5 3 4 5 4 4 4 6 6 4 3 3 2 3 3 2 3 3 3 3 3 4 5 5 4 4 5 5 5 5 5 5 6 6 7 7 8 8 9 9 10 8 7 7 8 11 14 15 17 18 18 18 18 16 16 17 18 19 18 18 16 15 17 16 15 16 19 17 15 15 12 6 6 10 10 11 13 15 14 12 13 16 16 12 11
5 3 4 4 4 4 4 3 3 2 4 1 2 4 5 4 5 4 4 4 4 3 3 4 5 6 7 6 5 6 6 6 8 7 7 7 7 6 6 6 6 7 9 8 7 7 7 8 11 12 12 13 16 17 17 17 17 18 19 19 19 19 19 17 16 16 16 16 17 18 17 15 13 10 5 5 8 10 13 15 15 15 17 17 17 16 16 16
6 5 4 3 3 2 2 4 4 3 3 2 2 4 4 4 5 5 5 4 5 4 4 5 5 6 8 7 6 7 7 7 9 9 9 9 9 7 5 5 5 6 8 7 6 5 6 7 9 10 9 11 13 15 16 16 17 20 20 20 20 18 17 15 14 14 14 14 15 15 13 10 11 11 8 6 8 10 13 14 13 14 16 16 13 12 13 14
6 4 4 4 1 0 2 3 4 2 3 4 3 4 3 3 4 5 4 2 3 3 4 6 5 4 6 7 7 8 8 9 10 11 10 10 11 11 9 10 11 9 8 8 6 5 7 7 7 8 9 10 13 15 16 15 15 15 15 17 18 18 18 17 16 17 16 14 13 12 9 8 10 9 6 7 10 11 10 10 12 12 13 13 12 12 12 12
Wind_Direction
5 5 4 3 2 0 360 359 357 355 353 354 352 349 345 340 334 328 325 325 331 333 332 336 339 340 334 326 319 312 314 294 274 244 233 242 237 240 234 212 223 229 210 197 215 209 191 202 205 208 215 217 228 241 238 229 218 186 194 234 268 298 340 346 298 289 246 176 191 128 156 229 162 138 146 139 146 148 155 151 148 138 137 140 134 141 145 146
4 3 3 2 0 360 360 358 357 354 352 351 350 350 346 340 333 325 321 321 327 331 331 332 335 337 332 332 327 318 312 281 266 255 242 246 252 250 245 235 243 231 202 207 219 207 193 197 199 206 212 221 219 222 236 224 212 221 238 226 220 275 348 345 305 299 301 238 214 151 190 217 140 151 146 145 169 150 165 153 134 128 130 133 135 143 146 148
3 2 0 360 359 358 358 357 356 354 350 348 349 348 344 338 331 322 317 318 322 327 326 327 328 325 328 332 330 328 310 283 263 253 239 235 240 248 250 239 240 227 203 209 216 205 201 200 195 204 211 223 222 217 227 212 208 223 237 245 208 209 189 270 275 289 295 285 240 173 192 204 125 175 134 161 177 132 189 151 128 144 142 139 141 146 149 152
2 1 359 358 358 357 356 356 355 352 350 348 347 345 341 336 328 321 315 314 316 321 322 322 321 313 322 330 330 335 292 280 263 158 140 212 234 245 243 230 230 219 208 216 226 216 211 210 198 204 215 225 227 220 230 218 212 219 230 259 168 170 178 193 222 287 279 274 244 202 158 184 162 188 123 136 146 109 255 140 129 155 146 143 147 150 154 156
1 0 358 357 357 357 355 355 353 351 349 347 345 341 338 333 327 320 314 312 312 315 316 315 314 304 311 326 330 318 274 275 101 96 86 248 249 238 226 223 225 212 210 222 238 236 221 219 205 206 220 234 234 218 228 224 227 244 247 267 137 154 183 174 170 223 246 261 254 206 140 215 189 66 68 93 109 182 207 136 156 156 145 148 150 152 157 159
0 0 358 357 357 356 355 353 351 349 347 345 343 339 336 333 328 320 313 310 308 309 311 310 309 296 305 326 325 281 261 300 84 81 21 319 303 229 216 222 216 203 211 224 239 243 223 218 211 210 220 233 242 232 228 219 230 252 254 260 179 162 182 168 177 200 198 191 308 276 155 214 101 33 8 101 137 185 136 286 181 147 147 153 151 156 159 161
360 360 358 357 356 355 355 352 350 347 344 343 341 340 338 334 330 324 314 307 305 306 304 304 301 289 309 322 309 245 248 275 83 66 7 332 313 228 212 212 201 194 209 221 231 238 220 215 214 214 221 229 242 242 244 229 226 240 251 268 229 154 176 170 191 198 169 136 183 262 226 183 116 141 185 115 126 129 134 261 179 144 154 154 154 161 160 162
358 359 358 356 355 354 353 351 349 345 342 342 341 341 339 336 334 330 320 310 308 306 302 304 296 288 314 314 284 247 237 255 79 62 16 4 338 241 205 194 194 192 207 217 224 233 219 216 217 218 224 230 241 239 249 248 233 237 247 263 254 167 168 192 230 216 167 149 176 208 209 164 138 164 163 127 126 130 154 202 166 155 157 153 159 163 163 166
357 357 357 356 355 353 352 350 348 344 340 340 341 341 340 338 335 335 329 321 316 308 308 303 294 296 309 295 273 268 205 53 39 35 22 28 354 227 192 180 191 194 206 215 224 233 221 216 220 223 233 241 251 247 247 250 242 237 239 252 256 220 175 178 203 234 230 185 183 193 172 123 132 151 128 131 159 125 151 171 165 167 162 159 164 164 167 168
355 355 355 355 354 351 349 348 347 344 338 339 341 340 339 337 334 336 333 330 324 311 313 299 303 304 290 273 264 274 65 35 339 12 17 22 142 178 187 185 189 195 205 213 224 233 226 222 223 226 244 257 264 268 260 253 260 255 250 250 253 260 225 187 172 199 245 225 194 200 145 131 160 165 121 135 158 129 147 164 163 167 165 164 166 165 168 171
354 353 354 354 353 350 347 345 345 342 336 337 339 338 338 336 332 333 332 333 323 308 308 296 299 293 275 270 265 293 36 353 301 314 350 184 164 174 192 190 187 197 206 212 223 232 231 230 235 235 237 252 263 270 272 266 271 274 276 274 256 259 265 246 199 182 213 221 204 205 138 145 169 172 167 163 161 171 176 161 160 169 166 163 165 166 169 172
353 352 352 353 352 349 345 342 342 340 335 333 335 338 338 335 331 328 324 325 316 305 302 296 295 283 273 268 255 327 3 321 290 286 245 208 198 183 197 196 190 202 208 216 224 228 235 235 241 247 237 244 252 256 286 284 273 267 262 269 269 261 250 250 241 200 198 202 186 184 161 162 168 160 177 173 159 174 180 161 163 169 163 163 165 166 173 173
352 351 350 351 351 348 344 339 339 339 334 330 332 336 336 334 329 320 315 320 319 313 304 302 293 260 270 276 236 6 341 307 299 277 244 225 212 191 207 208 196 208 218 230 233 225 233 240 243 250 255 260 256 260 303 294 269 263 251 251 260 263 249 235 234 216 211 193 166 184 206 190 173 160 170 170 155 161 176 176 170 168 166 169 168 169 178 175
351 350 348 348 348 347 343 336 335 337 335 330 330 333 333 331 325 309 308 318 326 324 311 304 269 244 263 268 81 26 330 273 239 234 223 226 221 199 207 217 209 213 225 240 248 238 231 240 249 255 259 262 270 279 284 271 254 255 247 243 242 250 255 240 225 208 211 195 169 190 231 201 172 162 166 167 158 156 174 188 174 173 172 168 171 174 179 177
351 350 348 346 345 346 342 335 331 333 335 331 328 330 327 324 318 297 296 312 323 317 307 292 243 233 265 240 159 36 247 215 218 208 216 242 232 208 200 213 217 217 226 238 250 257 239 234 242 249 253 254 265 272 274 270 254 247 239 235 231 234 248 249 235 208 201 190 177 194 232 195 161 159 161 161 164 162 173 190 179 174 168 164 177 177 177 178
351 349 348 345 343 343 341 334 328 327 332 330 327 327 322 318 310 291 287 297 311 308 293 273 230 223 270 324 141 204 236 241 314 271 245 254 244 227 199 202 213 216 223 229 241 260 254 240 237 242 249 248 249 251 257 263 246 231 232 236 229 228 233 241 246 220 198 185 183 202 226 191 154 162 161 159 169 171 174 189 189 174 165 171 182 178 178 178
350 348 347 345 342 341 340 334 327 326 328 327 326 325 321 314 298 285 283 286 298 289 252 263 261 237 255 304 232 213 314 358 346 297 233 245 253 248 200 195 209 207 212 222 230 245 245 236 234 235 242 242 240 236 237 243 239 221 219 235 239 240 237 229 245 226 193 185 191 205 219 215 151 160 164 165 167 172 178 187 192 175 162 179 183 181 183 179
348 347 345 345 342 339 338 334 327 325 324 324 325 324 321 312 294 284 281 282 285 258 245 255 271 268 243 275 277 276 357 349 344 305 212 223 245 253 227 207 209 194 200 217 217 225 227 217 226 230 227 229 232 228 225 228 236 234 216 222 234 240 248 240 247 223 180 183 201 204 212 208 172 159 165 174 174 178 180 185 193 175 167 192 186 184 186 182
345 345 344 343 342 337 337 334 326 324 321 320 327 326 319 306 287 269 259 251 234 246 270 227 228 281 297 264 342 346 325 311 287 255 218 209 220 237 233 214 205 194 198 208 196 204 213 209 219 228 222 219 221 222 231 237 245 257 248 237 233 228 241 239 248 237 181 183 207 207 215 203 172 162 172 179 182 183 177 182 194 176 171 197 202 195 192 185
344 344 342 341 341 337 334 331 324 320 315 316 322 321 314 309 290 243 245 243 238 266 304 275 247 297 302 317 347 322 277 238 253 257 207 203 209 219 221 206 201 199 209 212 191 193 209 218 217 224 227 222 223 225 237 249 253 267 270 259 251 239 239 231 237 244 204 189 203 207 220 202 164 168 180 181 181 182 180 183 188 178 177 186 197 229 218 197
343 342 342 341 339 336 332 330 322 309 307 307 309 312 348 5 347 349 337 290 264 264 275 285 301 292 297 330 329 323 285 225 225 302 111 197 214 210 193 196 208 201 213 221 205 193 206 229 225 223 232 231 233 229 234 250 254 263 269 272 269 256 253 240 233 238 221 214 207 198 210 202 186 186 182 184 187 186 186 185 183 178 177 181 190 200 222 225
342 342 342 339 338 336 330 327 314 299 304 299 290 306 19 3 339 325 325 298 284 268 252 267 273 261 275 309 286 297 287 254 209 174 133 213 219 210 176 192 221 210 208 218 218 204 204 231 234 227 232 233 241 240 233 241 249 257 261 266 271 266 269 252 237 238 229 235 220 192 201 208 202 191 183 191 192 188 188 186 180 172 172 182 194 189 197 236
342 343 342 339 338 334 329 324 306 289 295 293 293 10 6 346 335 321 304 283 286 257 229 237 244 241 221 227 218 247 270 277 224 142 119 237 232 227 207 205 227 224 215 212 214 221 214 224 231 231 236 231 235 243 241 238 239 248 252 255 254 254 269 258 236 237 223 240 242 200 195 215 203 182 185 194 189 192 195 185 173 166 173 184 199 192 181 224
343 343 342 340 337 332 332 322 298 273 262 270 300 31 359 337 336 326 306 275 278 244 213 214 229 237 272 306 268 252 270 292 284 102 112 243 255 265 240 229 235 231 226 221 221 233 237 228 221 222 231 236 234 234 239 243 235 235 238 249 255 249 259 264 267 260 225 232 254 231 206 211 200 188 188 189 190 197 190 176 165 163 171 176 207 207 182 201
343 344 342 341 337 333 330 315 299 304 286 272 326 21 352 343 342 331 312 273 256 213 183 180 207 218 319 279 235 247 280 269 255 4 105 263 297 304 259 246 244 241 235 229 228 236 242 241 229 218 219 230 238 233 230 237 244 240 230 237 253 261 264 267 276 280 252 227 238 242 240 215 196 198 191 184 190 184 162 166 172 164 165 170 212 234 199 197
344 344 342 340 338 333 327 315 322 323 307 317 15 357 342 349 341 323 303 268 238 170 157 173 190 178 185 217 212 249 271 228 197 112 228 275 299 294 278 257 233 246 251 242 237 239 239 242 240 233 223 220 231 236 230 232 241 248 238 230 239 253 264 270 276 276 271 260 234 234 247 236 213 214 201 187 186 180 162 171 183 170 161 176 190 229 228 208
343 343 341 338 337 337 328 319 327 314 304 3 6 340 339 348 337 312 268 254 227 156 154 162 157 151 158 169 220 266 291 98 164 210 200 288 297 261 261 258 240 243 255 256 249 239 227 234 237 237 235 227 226 230 226 230 239 241 253 250 233 237 247 256 268 270 272 283 270 253 249 235 224 228 224 203 185 186 177 169 180 175 162 178 190 199 218 215
341 342 340 334 332 324 296 292 311 308 326 355 341 332 339 336 320 277 257 264 181 150 154 124 104 196 214 209 246 263 304 303 233 192 160 263 263 241 247 257 268 269 262 257 252 244 225 225 232 234 236 236 233 234 224 225 239 242 252 265 260 247 246 245 252 259 262 269 270 263 256 241 223 215 232 219 184 183 183 168 171 178 168 177 196 202 205 206
339 340 338 332 323 286 265 271 285 294 323 338 326 327 326 310 293 248 258 278 163 147 115 113 133 197 220 239 234 244 277 251 222 138 174 234 221 231 264 273 288 293 282 270 263 260 246 225 228 234 235 234 233 240 234 226 235 240 245 262 272 264 256 253 250 246 252 254 252 258 258 252 246 217 215 220 189 180 182 172 170 174 174 179 196 205 199 196
336 336 338 331 318 304 286 260 254 282 315 326 323 320 305 288 276 239 237 240 153 134 136 156 134 159 217 237 204 193 256 248 246 279 238 240 208 210 264 280 283 292 284 275 270 269 274 274 254 239 238 242 237 234 236 237 241 237 237 251 261 260 257 269 272 254 246 244 239 249 255 253 258 248 215 210 204 191 181 173 170 170 174 181 190 199 194 189
333 332 333 324 304 309 305 273 284 323 321 320 321 313 291 264 246 255 241 133 127 146 171 154 108 177 225 264 220 171 237 226 234 274 241 233 216 206 235 241 232 256 263 263 263 262 270 275 268 248 240 246 247 236 231 242 247 237 235 243 247 247 241 242 256 253 248 246 233 235 245 248 249 254 253 239 214 200 185 172 169 171 175 180 186 190 187 183
332 330 325 311 281 278 282 288 328 333 321 319 317 303 285 244 223 246 233 177 179 172 155 111 69 174 227 289 251 162 250 201 164 273 259 250 238 215 219 223 214 251 245 242 244 239 246 249 249 251 238 231 244 240 221 226 229 227 232 236 237 234 227 225 228 233 241 245 236 228 233 241 245 245 258 268 244 198 203 187 169 171 178 180 184 184 180 181
333 329 320 296 245 254 267 283 311 320 318 316 304 283 278 258 233 252 256 204 90 50 46 85 73 14 356 292 255 109 201 217 143 282 276 274 271 236 196 232 325 300 266 289 280 246 226 224 227 239 235 213 230 238 220 213 212 219 224 221 225 226 225 228 223 229 242 245 236 229 229 235 243 237 235 257 265 232 221 208 171 169 175 176 180 181 179 183
333 324 316 279 236 249 259 274 294 304 308 306 285 259 255 251 269 301 318 51 61 54 75 52 332 283 261 267 33 70 236 228 94 291 289 261 260 260 215 218 346 304 279 299 299 275 256 231 209 218 220 203 215 229 238 233 219 222 223 220 225 225 230 238 229 224 236 248 234 221 225 231 234 231 211 232 255 250 232 217 174 163 168 171 176 181 181 184
336 324 306 270 253 254 249 255 275 291 293 287 263 256 252 256 342 349 5 36 25 5 44 7 283 263 239 219 122 116 241 252 81 266 268 240 233 262 357 68 44 347 300 294 307 300 282 278 237 212 214 207 205 214 234 245 240 224 215 219 225 223 234 249 256 260 259 261 244 218 221 227 224 242 220 217 238 241 240 239 184 155 162 172 174 179 182 182
339 327 297 257 264 281 267 261 274 275 271 266 254 250 250 8 22 13 357 354 358 4 345 298 253 252 237 191 172 155 170 235 235 236 255 240 234 24 61 59 31 7 358 329 313 322 294 287 302 274 232 221 208 200 212 230 244 231 211 217 225 229 241 249 258 271 278 272 258 240 233 221 212 229 224 216 223 226 231 244 228 166 162 170 172 176 182 181
334 323 304 274 298 336 320 283 268 243 243 255 266 271 274 34 33 17 358 338 335 355 321 300 217 265 282 222 144 121 123 230 233 246 262 226 216 35 71 81 38 18 14 349 311 327 327 302 304 301 265 240 226 208 204 213 234 251 228 205 205 225 240 252 260 259 261 261 257 256 251 230 214 211 209 215 217 217 215 222 240 213 166 165 174 176 177 179
315 309 299 278 317 338 322 263 242 233 238 250 263 275 288 31 44 19 358 335 322 335 313 302 14 287 299 326 79 85 15 303 90 337 266 208 128 16 21 67 56 37 14 355 327 316 326 307 295 293 273 266 263 234 218 210 217 236 259 251 223 228 227 225 247 250 248 256 253 253 254 244 236 208 187 206 214 217 210 202 223 224 168 162 175 169 169 178
292 286 288 316 337 340 351 254 247 245 249 262 276 291 324 30 53 27 353 345 343 333 312 315 334 269 226 297 337 43 347 331 23 345 289 270 75 38 25 11 9 19 15 360 333 312 319 305 290 295 293 298 273 231 235 231 212 213 249 269 262 263 255 227 227 236 247 258 253 249 248 241 252 244 205 202 202 214 216 198 212 219 187 176 174 162 169 181
282 272 31 27 335 335 355 257 254 260 258 260 288 13 29 32 53 39 8 357 350 336 337 341 336 336 356 314 313 357 16 320 315 296 299 359 337 91 64 31 347 349 0 346 314 298 296 286 281 291 300 302 272 228 233 248 231 204 219 251 252 251 267 263 243 227 229 248 256 254 252 237 233 252 255 226 185 198 215 207 212 214 205 199 177 162 172 182
290 294 42 22 335 325 289 271 253 261 261 258 321 32 37 18 14 29 35 11 350 17 7 329 323 338 347 324 317 343 333 281 280 272 246 260 287 64 47 34 15 349 350 325 290 291 291 281 281 283 283 273 261 254 248 255 264 244 221 236 248 239 240 255 260 238 221 227 243 251 265 261 229 221 252 243 180 192 209 213 219 213 210 209 184 170 177 184
274 305 26 22 358 297 290 289 267 265 345 22 19 45 33 355 354 6 46 36 357 46 10 296 299 333 326 322 327 345 356 295 294 310 285 282 3 64 60 39 18 342 341 307 284 334 348 296 278 276 271 275 282 286 283 288 295 280 249 240 249 255 247 239 243 247 232 221 230 242 256 265 274 292 267 226 199 203 199 198 213 216 216 219 201 182 179 182
291 11 60 64 10 298 288 306 329 321 40 1 327 57 34 354 8 349 347 73 64 185 328 317 343 350 358 9 340 333 350 304 290 298 294 287 14 77 70 48 30 342 333 326 309 353 353 276 261 273 274 282 287 290 291 289 291 285 260 246 250 275 279 268 270 271 253 230 223 226 238 249 276 311 309 211 186 237 215 189 199 210 214 223 219 196 182 179
336 331 72 86 304 292 294 332 343 31 55 4 346 77 75 46 20 346 348 31 20 332 343 352 6 3 357 349 317 303 323 320 292 288 291 283 240 76 11 14 30 345 336 12 359 352 335 276 266 271 268 266 264 268 272 261 259 275 266 252 255 269 274 282 296 291 270 259 253 239 232 235 245 286 311 59 144 251 245 189 189 209 210 213 222 217 195 176
312 289 90 43 302 338 15 350 353 56 65 23 18 54 88 79 50 2 345 4 17 356 346 355 0 338 327 328 319 315 320 312 296 292 300 297 278 302 341 355 357 322 342 19 356 331 302 291 287 271 259 253 243 244 279 278 275 290 281 273 275 272 273 282 286 268 251 264 272 268 252 241 233 250 277 271 222 234 251 217 190 205 210 204 209 223 217 178
309 307 43 20 352 43 48 1 4 34 52 47 30 18 17 44 75 64 359 353 25 358 323 334 346 312 321 330 315 317 319 308 308 306 300 295 287 299 330 342 332 309 317 347 333 305 288 282 276 273 268 269 281 305 324 322 314 306 298 296 293 289 293 298 285 265 265 262 260 261 266 274 274 262 260 275 257 239 298 309 260 211 212 207 201 207 210 181
316 6 19 3 347 30 57 36 22 24 18 32 55 17 6 357 25 69 71 353 360 337 320 4 359 326 350 349 317 317 325 309 304 301 290 286 291 306 317 320 312 298 297 302 290 278 282 269 262 267 268 271 282 294 302 303 297 294 295 294 292 295 299 298 297 304 308 293 264 265 268 265 273 285 11 352 301 238 240 287 285 272 217 207 200 127 180 190
353 28 27 337 310 12 25 17 21 36 25 12 35 31 335 358 6 25 116 79 343 340 352 44 7 333 350 354 321 307 308 289 279 290 292 291 299 304 304 301 290 283 283 278 266 259 264 266 265 265 266 269 274 281 285 284 281 281 282 282 286 290 289 289 295 297 301 299 287 290 294 279 274 279 331 3 350 346 345 327 312 309 2 68 18 42 154 189
356 28 36 353 339 36 34 5 351 39 43 10 15 29 345 359 37 15 4 351 340 1 344 332 12 7 336 313 296 292 303 305 296 306 309 298 297 294 288 285 276 274 280 276 269 263 256 261 265 264 268 273 273 276 279 280 278 274 272 275 279 281 281 283 286 283 282 288 286 279 275 277 287 295 312 356 356 356 9 16 8 4 18 27 25 30 38 51
3 27 27 12 38 43 41 39 352 22 82 55 345 23 359 355 19 8 342 325 325 358 332 316 359 350 308 299 307 298 307 313 302 305 306 293 288 280 278 288 288 285 288 281 274 273 264 263 269 269 270 271 270 271 269 271 274 271 268 270 272 275 275 273 276 277 274 279 284 278 270 271 281 291 313 348 343 357 18 22 17 12 11 17 26 28 31 40
36 47 359 343 51 7 334 60 36 343 57 68 2 12 5 7 11 341 315 315 321 336 333 323 344 335 308 308 307 298 308 312 300 300 299 291 290 287 271 266 267 276 279 274 273 271 254 255 266 267 265 265 266 266 262 261 264 263 261 259 259 264 267 266 265 266 265 267 272 272 269 271 275 271 268 294 333 7 24 20 12 5 359 6 21 20 17 25
35 55 353 319 36 13 319 56 58 351 38 52 21 1 345 3 11 331 313 308 292 297 312 312 316 312 303 309 316 321 326 317 304 303 298 290 288 284 273 263 258 258 263 262 262 258 251 255 260 256 259 266 268 266 265 262 257 255 255 253 252 255 260 263 262 258 259 262 260 259 260 273 292 308 330 350 5 14 13 19 22 1 346 358 16 16 11 10